• In Belarus
  • List of Countries
  • For 7 days
  • Water Temperature
  • Satellite Maps
  • Weather Map
  • Weather Widgets
  • user-avatar
    Login

    Hourly Weather Bujumbura

    Today, 17 December, Sunday

    Time Temperature Precipitation Wind Pressure Humidity
    00:00 +23°C° 0.1 mm 1 mps 691 mmHg 85%
    01:00 +23°C° 0.1 mm 1 mps 691 mmHg 84%
    02:00 +21°C° 0 mm 0 mps 691 mmHg 85%
    03:00 +23°C° 0.1 mm 1 mps 691 mmHg 84%
    04:00 +23°C° 0.1 mm 1 mps 691 mmHg 84%
    05:00 +23°C° 0.1 mm 1 mps 691 mmHg 84%
    06:00 +24°C° 0.1 mm 1 mps 691 mmHg 80%
    07:00 +26°C° 0.1 mm 1 mps 692 mmHg 76%
    08:00 +27°C° 0 mm 1 mps 692 mmHg 71%
    09:00 +29°C° 0 mm 1 mps 692 mmHg 63%
    10:00 +31°C° 0 mm 1 mps 692 mmHg 56%
    11:00 +33°C° 0 mm 1 mps 692 mmHg 48%
    12:00 +33°C° 0.2 mm 1 mps 691 mmHg 49%
    13:00 +34°C° 0.2 mm 1 mps 690 mmHg 51%
    14:00 +34°C° 0.2 mm 1 mps 690 mmHg 52%
    15:00 +32°C° 0.5 mm 1 mps 689 mmHg 57%
    16:00 +31°C° 0.5 mm 1 mps 689 mmHg 62%
    17:00 +30°C° 0.5 mm 1 mps 689 mmHg 67%
    18:00 +28°C° 0.4 mm 1 mps 689 mmHg 72%
    19:00 +27°C° 0.4 mm 1 mps 690 mmHg 77%
    20:00 +23°C° 0.4 mm 0 mps 690 mmHg 82%
    21:00 +23°C° 0.2 mm 0 mps 690 mmHg 82%
    22:00 +23°C° 0.2 mm 0 mps 691 mmHg 81%
    23:00 +24°C° 0.2 mm 1 mps 691 mmHg 81%

    Tomorrow, 18 December, Monday

    Time Temperature Precipitation Wind Pressure Humidity
    00:00 +24°C° 0.1 mm 1 mps 691 mmHg 81%
    01:00 +24°C° 0.1 mm 1 mps 691 mmHg 81%
    02:00 +24°C° 0.1 mm 1 mps 691 mmHg 82%
    03:00 +24°C° 0.1 mm 1 mps 691 mmHg 82%
    04:00 +24°C° 0.1 mm 1 mps 691 mmHg 82%
    05:00 +23°C° 0.1 mm 1 mps 691 mmHg 83%
    06:00 +25°C° 0.2 mm 1 mps 691 mmHg 79%
    07:00 +26°C° 0.2 mm 1 mps 691 mmHg 76%
    08:00 +27°C° 0.2 mm 1 mps 692 mmHg 72%
    09:00 +28°C° 0.2 mm 1 mps 691 mmHg 67%
    10:00 +30°C° 0.2 mm 1 mps 691 mmHg 61%
    11:00 +31°C° 0.2 mm 1 mps 691 mmHg 56%
    12:00 +32°C° 0.2 mm 1 mps 691 mmHg 57%
    13:00 +32°C° 0.2 mm 1 mps 690 mmHg 57%
    14:00 +32°C° 0.2 mm 1 mps 689 mmHg 58%
    15:00 +31°C° 0.7 mm 1 mps 689 mmHg 63%
    16:00 +29°C° 0.7 mm 1 mps 689 mmHg 68%
    17:00 +28°C° 0.7 mm 1 mps 689 mmHg 73%
    18:00 +27°C° 0.8 mm 1 mps 689 mmHg 77%
    19:00 +24°C° 0.8 mm 0 mps 690 mmHg 80%
    20:00 +23°C° 0.8 mm 0 mps 690 mmHg 84%
    21:00 +22°C° 0.6 mm 0 mps 691 mmHg 85%
    22:00 +22°C° 0.6 mm 0 mps 691 mmHg 86%
    23:00 +22°C° 0.6 mm 0 mps 691 mmHg 87%

    Day after tomorrow, 19 December, Tuesday

    Time Temperature Precipitation Wind Pressure Humidity
    00:00 +22°C° 1.1 mm 0 mps 691 mmHg 88%
    01:00 +21°C° 1.1 mm 0 mps 690 mmHg 89%
    02:00 +23°C° 1.1 mm 1 mps 690 mmHg 90%
    03:00 +23°C° 1.1 mm 1 mps 690 mmHg 91%
    04:00 +23°C° 1.1 mm 1 mps 690 mmHg 91%
    05:00 +23°C° 1.1 mm 1 mps 690 mmHg 91%
    06:00 +24°C° 0.4 mm 1 mps 690 mmHg 89%
    07:00 +24°C° 0.4 mm 1 mps 691 mmHg 86%
    08:00 +23°C° 0.4 mm 0 mps 691 mmHg 84%
    09:00 +27°C° 0.1 mm 1 mps 692 mmHg 76%
    10:00 +29°C° 0.1 mm 1 mps 692 mmHg 68%
    11:00 +30°C° 0.1 mm 2 mps 692 mmHg 61%
    12:00 +31°C° 0.4 mm 2 mps 691 mmHg 61%
    13:00 +31°C° 0.4 mm 1 mps 690 mmHg 61%
    14:00 +32°C° 0.4 mm 1 mps 690 mmHg 61%
    15:00 +30°C° 0.8 mm 1 mps 689 mmHg 66%
    16:00 +29°C° 0.8 mm 2 mps 689 mmHg 72%
    17:00 +28°C° 0.8 mm 2 mps 689 mmHg 77%
    18:00 +27°C° 0.8 mm 1 mps 690 mmHg 82%
    19:00 +26°C° 0.8 mm 1 mps 690 mmHg 87%
    20:00 +25°C° 0.8 mm 1 mps 691 mmHg 92%
    21:00 +24°C° 0.5 mm 1 mps 691 mmHg 93%
    22:00 +24°C° 0.5 mm 1 mps 691 mmHg 93%
    23:00 +22°C° 0.5 mm 0 mps 692 mmHg 94%

    20 December, Wednesday

    Time Temperature Precipitation Wind Pressure Humidity
    00:00 +22°C° 0.2 mm 0 mps 691 mmHg 94%
    01:00 +22°C° 0.2 mm 0 mps 691 mmHg 94%
    02:00 +21°C° 0.2 mm 0 mps 690 mmHg 94%
    03:00 +21°C° 0 mm 0 mps 690 mmHg 94%
    04:00 +21°C° 0 mm 0 mps 690 mmHg 93%
    05:00 +21°C° 0 mm 0 mps 690 mmHg 93%
    06:00 +22°C° 0 mm 0 mps 691 mmHg 88%
    07:00 +23°C° 0 mm 0 mps 692 mmHg 84%
    08:00 +26°C° 0 mm 1 mps 692 mmHg 79%
    09:00 +28°C° 0.3 mm 1 mps 692 mmHg 73%
    10:00 +29°C° 0.3 mm 1 mps 692 mmHg 68%
    11:00 +31°C° 0.3 mm 2 mps 692 mmHg 62%
    12:00 +30°C° 0.9 mm 2 mps 692 mmHg 66%
    13:00 +29°C° 0.9 mm 2 mps 691 mmHg 70%
    14:00 +28°C° 0.9 mm 2 mps 690 mmHg 74%
    15:00 +28°C° 1.2 mm 1 mps 690 mmHg 78%
    16:00 +27°C° 1.2 mm 1 mps 690 mmHg 81%
    17:00 +26°C° 1.2 mm 1 mps 690 mmHg 85%
    18:00 +25°C° 0.5 mm 1 mps 690 mmHg 87%
    19:00 +25°C° 0.5 mm 1 mps 691 mmHg 89%
    20:00 +22°C° 0.5 mm 0 mps 692 mmHg 91%
    21:00 +22°C° 0.4 mm 0 mps 692 mmHg 90%
    22:00 +22°C° 0.4 mm 0 mps 692 mmHg 90%
    23:00 +22°C° 0.4 mm 0 mps 693 mmHg 90%

    21 December, Thursday

    Time Temperature Precipitation Wind Pressure Humidity
    00:00 +21°C° 0.2 mm 0 mps 692 mmHg 90%
    01:00 +23°C° 0.2 mm 1 mps 692 mmHg 90%
    02:00 +23°C° 0.2 mm 1 mps 691 mmHg 90%
    03:00 +23°C° 0 mm 1 mps 691 mmHg 89%
    04:00 +22°C° 0 mm 1 mps 691 mmHg 89%
    05:00 +22°C° 0 mm 1 mps 691 mmHg 88%
    06:00 +23°C° 0 mm 1 mps 692 mmHg 82%
    07:00 +25°C° 0 mm 1 mps 692 mmHg 77%
    08:00 +26°C° 0 mm 1 mps 693 mmHg 71%
    09:00 +28°C° 0 mm 1 mps 693 mmHg 64%
    10:00 +30°C° 0 mm 1 mps 693 mmHg 57%
    11:00 +32°C° 0 mm 2 mps 693 mmHg 51%
    12:00 +32°C° 0.2 mm 2 mps 692 mmHg 53%
    13:00 +32°C° 0.2 mm 2 mps 691 mmHg 55%
    14:00 +32°C° 0.2 mm 1 mps 690 mmHg 57%
    15:00 +31°C° 0.5 mm 1 mps 690 mmHg 62%
    16:00 +30°C° 0.5 mm 1 mps 690 mmHg 66%
    17:00 +29°C° 0.5 mm 1 mps 690 mmHg 71%
    18:00 +27°C° 0.6 mm 1 mps 690 mmHg 77%
    19:00 +26°C° 0.6 mm 1 mps 691 mmHg 84%
    20:00 +24°C° 0.6 mm 1 mps 691 mmHg 90%
    21:00 +24°C° 0.1 mm 1 mps 692 mmHg 91%
    22:00 +23°C° 0.1 mm 1 mps 692 mmHg 91%
    23:00 +23°C° 0.1 mm 1 mps 692 mmHg 92%

    22 December, Friday

    Time Temperature Precipitation Wind Pressure Humidity
    00:00 +23°C° 0 mm 1 mps 692 mmHg 91%
    01:00 +22°C° 0 mm 1 mps 691 mmHg 91%
    02:00 +22°C° 0 mm 1 mps 691 mmHg 91%
    03:00 +22°C° 0 mm 1 mps 691 mmHg 89%
    04:00 +22°C° 0 mm 1 mps 691 mmHg 88%
    05:00 +21°C° 0 mm 1 mps 691 mmHg 87%
    06:00 +23°C° 0 mm 1 mps 692 mmHg 79%
    07:00 +25°C° 0 mm 1 mps 692 mmHg 72%
    08:00 +27°C° 0 mm 1 mps 693 mmHg 64%
    09:00 +29°C° 0 mm 1 mps 693 mmHg 57%
    10:00 +31°C° 0 mm 1 mps 692 mmHg 49%
    11:00 +34°C° 0 mm 2 mps 692 mmHg 42%
    12:00 +35°C° 0 mm 2 mps 691 mmHg 42%
    13:00 +35°C° 0 mm 2 mps 691 mmHg 41%
    14:00 +35°C° 0 mm 1 mps 690 mmHg 41%
    15:00 +34°C° 0.1 mm 1 mps 690 mmHg 46%
    16:00 +32°C° 0.1 mm 1 mps 689 mmHg 51%
    17:00 +31°C° 0.1 mm 1 mps 689 mmHg 56%
    18:00 +29°C° 0.6 mm 1 mps 689 mmHg 64%
    19:00 +27°C° 0.6 mm 1 mps 690 mmHg 72%
    20:00 +24°C° 0.6 mm 1 mps 690 mmHg 81%
    21:00 +24°C° 0.1 mm 1 mps 690 mmHg 82%
    22:00 +24°C° 0.1 mm 1 mps 690 mmHg 83%
    23:00 +21°C° 0.1 mm 0 mps 691 mmHg 84%
    Show more